This demonstration page uses our WeatherBlox Daily Observations layout. Learn more.

Left ArrowRight Arrow

Hourly Observations for May 16, 2017

Temp ( °F °C ) Dew Point ( °F °C ) Humidity (%) Winds ( mph kmh ) Pressure ( in mb ) Visibility ( mi km ) Precip ( " mm )
12:15 am 00:15 Clear 61 16 57 13.8 87 87 E 8 13 29.68 1005 10 16 N/A
12:35 am 00:35 Clear 61 16 57 13.9 87 87 E 13 20 29.68 1005 10 16 N/A
12:55 am 00:55 Clear with Nearby Thunderstorms 60 15.8 57 14 89 89 ENE 15 24 29.68 1005 10 16 N/A
1:15 am 01:15 Clear 61 16.1 57 13.8 86 86 E 17 28 29.65 1004 10 16 N/A
1:35 am 01:35 Clear 61 16.2 57 13.8 86 86 E 17 28 29.65 1004 10 16 N/A
1:55 am 01:55 Clear 61 16 57 13.8 87 87 E 14 22 29.65 1004 10 16 N/A
2:15 am 02:15 Clear 61 16 57 13.7 86 86 E 13 20 29.65 1004 10 16 N/A
2:35 am 02:35 Clear 60 15.7 57 13.8 89 89 E 18 30 29.62 1003 10 16 N/A
2:55 am 02:55 Clear 60 15.8 57 13.7 87 87 E 13 20 29.62 1003 10 16 N/A
3:15 am 03:15 Clear 60 15.8 56 13.6 87 87 E 14 22 29.62 1003 10 16 N/A
3:35 am 03:35 Clear 60 15.7 57 13.7 88 88 E 15 24 29.62 1003 10 16 N/A
3:55 am 03:55 Clear 60 15.4 56 13.6 89 89 E 16 26 29.59 1002 10 16 N/A
4:15 am 04:15 Clear 60 15.5 57 13.7 89 89 E 16 26 29.59 1002 10 16 N/A
4:35 am 04:35 Clear 60 15.3 56 13.6 90 90 ESE 13 20 29.59 1002 10 16 N/A
4:55 am 04:55 Clear 59 15.2 56 13.6 90 90 ESE 13 20 29.59 1002 10 16 N/A
5:15 am 05:15 Clear 59 15 56 13.5 91 91 ESE 12 19 29.56 1001 10 16 N/A
5:35 am 05:35 Clear 59 15 56 13.6 91 91 ESE 10 17 29.56 1001 10 16 N/A
5:55 am 05:55 Clear 58 14.6 56 13.4 93 93 ESE 9 15 29.56 1001 10 16 N/A
6:15 am 06:15 Clear 58 14.5 56 13.3 93 93 ESE 7 11 29.56 1001 10 16 N/A
6:35 am 06:35 Sunny 58 14.3 56 13.2 93 93 SE 7 11 29.56 1001 10 16 N/A
6:55 am 06:55 Sunny 57 14.1 55 13 93 93 SE 8 13 29.56 1001 10 16 N/A
7:15 am 07:15 Sunny 58 14.5 56 13.5 94 94 SE 8 13 29.56 1001 10 16 N/A
7:35 am 07:35 Sunny 60 15.6 57 14 90 90 SSE 7 11 29.53 1000 10 16 N/A
7:55 am 07:55 Sunny 62 16.7 58 14.2 85 85 S 8 13 29.53 1000 10 16 N/A
8:15 am 08:15 Sunny 64 17.8 58 14.5 81 81 S 12 19 29.53 1000 10 16 N/A
8:35 am 08:35 Sunny 65 18.6 59 14.8 79 79 SSW 12 19 29.53 1000 10 16 N/A
8:55 am 08:55 Sunny 67 19.3 59 14.8 75 75 SSW 13 20 29.47 998 10 16 N/A
9:15 am 09:15 Sunny 68 19.8 59 15.2 75 75 SSW 10 17 29.50 999 10 16 N/A
9:35 am 09:35 Sunny 68 20 59 15 73 73 SW 12 19 29.50 999 10 16 N/A
9:55 am 09:55 Sunny 68 20 59 14.8 72 72 SW 12 19 29.50 999 10 16 N/A
10:15 am 10:15 Sunny 69 20.6 59 15.1 71 71 SW 8 13 29.50 999 10 16 N/A
10:35 am 10:35 Sunny 69 20.7 58 14.7 69 69 SW 8 13 29.50 999 10 16 N/A
10:55 am 10:55 Sunny 70 21.3 59 15.2 68 68 SSW 8 13 29.50 999 10 16 N/A
11:15 am 11:15 Sunny 71 21.8 60 15.3 67 67 SSW 8 13 29.50 999 10 16 N/A
11:35 am 11:35 Sunny 72 22.2 59 15.2 65 65 SW 6 9 29.50 999 10 16 N/A
11:55 am 11:55 Sunny 73 22.6 60 15.3 64 64 SSW 6 9 29.50 999 10 16 N/A
12:15 pm 12:15 Sunny 74 23.2 60 15.7 63 63 W 6 9 29.47 998 10 16 N/A
12:35 pm 12:35 Sunny 74 23.5 60 15.8 62 62 W 7 11 29.47 998 10 16 N/A
12:55 pm 12:55 Sunny 76 24.2 61 16.2 61 61 W 8 13 29.47 998 10 16 N/A
1:15 pm 13:15 Sunny 74 23.6 59 15.2 59 59 WNW 3 6 29.47 998 10 16 N/A
1:35 pm 13:35 Partly Cloudy 75 24 60 15.8 60 60 NNW 8 13 29.47 998 10 16 N/A
1:55 pm 13:55 Sunny 75 24 61 15.9 61 61 NW 5 7 29.47 998 10 16 N/A
2:15 pm 14:15 Sunny 76 24.2 61 16.1 61 61 N 6 9 29.47 998 10 16 N/A
2:35 pm 14:35 Sunny 76 24.5 60 15.6 58 58 N 7 11 29.47 998 10 16 N/A
2:55 pm 14:55 Sunny 76 24.7 60 15.4 56 56 N N/A 29.47 998 10 16 N/A
3:15 pm 15:15 Sunny 75 24.1 60 15.6 59 59 NNE 5 7 29.47 998 10 16 N/A
3:35 pm 15:35 Sunny 77 25 62 16.5 59 59 NNE 9 15 29.44 997 10 16 N/A
3:55 pm 15:55 Sunny 77 25.1 62 16.4 59 59 ENE 9 15 29.44 997 10 16 N/A
4:15 pm 16:15 Sunny 78 25.6 61 16.1 56 56 ENE 12 19 29.44 997 10 16 N/A
4:35 pm 16:35 Sunny 78 25.7 60 15.8 54 54 ENE 14 22 29.41 996 10 16 N/A
4:55 pm 16:55 Sunny 78 25.3 61 15.9 56 56 ENE 12 19 29.41 996 10 16 N/A
5:15 pm 17:15 Sunny 77 25 61 16 57 57 ENE 10 17 29.38 995 10 16 N/A
5:35 pm 17:35 Sunny 75 23.8 60 15.7 61 61 NE 10 17 29.38 995 10 16 N/A
5:55 pm 17:55 Sunny 74 23.2 60 15.7 63 63 NE 10 17 29.38 995 10 16 N/A
6:15 pm 18:15 Partly Cloudy 73 22.6 61 16 66 66 NE 6 9 29.38 995 10 16 N/A
6:35 pm 18:35 Mostly Cloudy with Thunderstorms 72 22 63 17.3 75 75 E 12 19 29.44 997 10 16 N/A
6:55 pm 18:55 Cloudy with Strong Thunderstorms 56 13.6 54 12.3 92 92 S 24 39 29.56 1001 1 1 0.65 16.51
7:15 pm 19:15 Cloudy with Rain 59 14.8 56 13.4 91 91 SSW 3 6 29.50 999 10 16 0.05 1.27
7:35 pm 19:35 Cloudy 58 14.7 56 13.6 93 93 SSE 3 6 29.44 997 10 16 0.08 2.03
7:55 pm 19:55 Partly Cloudy 59 15.1 57 14.1 94 94 SE 10 17 29.44 997 10 16 0.08 2.03
8:15 pm 20:15 Partly Cloudy 60 15.5 57 13.7 89 89 N N/A 29.44 997 10 16 N/A
8:35 pm 20:35 Partly Cloudy 60 15.4 57 13.9 91 91 NE 7 11 29.41 996 10 16 N/A
8:55 pm 20:55 Partly Cloudy 60 15.4 57 13.8 90 90 NE 10 17 29.41 996 10 16 N/A
9:15 pm 21:15 Mostly Cloudy 60 15.3 57 13.7 90 90 E 10 17 29.41 996 10 16 N/A
9:35 pm 21:35 Cloudy with Nearby Thunderstorms 59 15.2 57 13.7 91 91 E 15 24 29.41 996 7 11 0.05 1.27
9:55 pm 21:55 Cloudy with Thunderstorms 59 15.1 57 13.7 91 91 ENE 15 24 29.41 996 7 11 0.18 4.57
10:15 pm 22:15 Cloudy 60 15.5 56 13.5 88 88 ENE 10 17 29.47 998 10 16 N/A
10:35 pm 22:35 Cloudy 60 15.6 56 13.5 87 87 NE 13 20 29.44 997 10 16 N/A
10:55 pm 22:55 Cloudy 60 15.8 56 13.4 86 86 NNE 12 19 29.44 997 10 16 N/A
11:15 pm 23:15 Cloudy with Thunderstorms 60 15.5 56 13.5 88 88 N 9 15 29.47 998 10 16 0.03 0.76
11:35 pm 23:35 Cloudy with Thunderstorms 59 15.1 56 13.6 91 91 NNW 9 15 29.47 998 10 16 0.05 1.27
11:55 pm 23:55 Cloudy with Rain 59 15 57 13.8 93 93 NW 17 28 29.47 998 7 11 0.15 3.81

Powered by AerisWeather